Location: Unspecified
(0.0000°N, 0.0000°E)
Time: 13:44:55
(UTC+00:00)

Vanguard 3 - Pass Details

Date: 09 December 2025
Orbit: 507 x 3207 km, 33.3° (Epoch: 22 January)

Event Time Altitude Azimuth Distance (km) Brightness Sun altitude
Rises 10:57:40 0° 244° (WSW) 6,874 11.9 63.5°
Reaches altitude 10° 11:02:54 10° 248° (WSW) 5,577 11.5 64.2°
Maximum altitude 11:17:49 52° 319° (NW) 2,307 9.9 65.6°
Drops below altitude 10° 11:26:33 10° 34° (NE) 3,361 10.3 66.3°
Sets 11:28:56 0° 40° (NE) 4,044 10.6 66.4°
